GFSSGP_850_spd_159.txt.gz
Wind_Speed
15 10 7 1 4 4 2 1 1 2 2 2 3 3 4 4 2 1 1 11 12 13 12 11 10 9 9 5 3 2 2 2 2 2 3 8 7 6 7 12 12 13 11 11 12 11 13 14 12
15 10 3 3 4 3 1 3 2 1 3 4 3 3 4 2 4 3 9 6 11 12 10 10 8 9 9 6 2 1 2 3 4 2 4 6 4 4 11 8 11 10 10 10 10 12 13 14 11
12 10 4 4 3 3 3 2 2 2 2 4 2 6 3 2 4 6 2 7 11 11 9 8 7 9 8 5 2 1 3 3 3 2 5 5 3 4 9 9 11 9 11 10 10 12 11 10 9
11 4 6 4 4 0 2 1 1 2 3 4 3 4 3 4 3 5 4 8 10 10 8 8 7 8 6 4 4 4 3 4 4 1 5 5 4 3 6 8 11 9 9 9 10 11 8 9 13
7 4 4 4 2 1 2 1 2 2 2 3 3 1 3 4 5 4 4 8 7 7 8 7 7 7 6 6 6 7 6 6 6 3 6 8 4 4 5 7 8 9 9 8 7 7 7 9 11
4 3 4 2 1 2 2 3 1 1 2 3 3 2 2 2 3 4 7 8 6 5 7 7 8 8 8 8 8 8 8 7 7 6 9 9 6 6 6 6 6 5 4 4 6 6 7 6 8
5 3 4 4 2 2 2 3 3 1 3 4 3 2 3 4 4 4 7 7 5 5 6 7 9 10 10 9 9 8 8 8 7 8 10 11 11 8 7 6 6 6 6 6 7 6 6 6 6
4 5 3 0 2 1 3 1 3 4 3 3 3 3 3 6 2 3 4 5 5 6 6 7 9 11 12 12 11 10 10 10 10 8 13 13 14 12 11 8 7 9 8 7 6 6 6 6 6
3 4 2 5 5 2 4 2 3 3 3 3 4 4 4 4 2 0 2 4 5 6 6 7 8 9 12 13 13 13 12 12 11 11 9 12 15 14 13 12 13 12 11 10 9 9 9 8 8
5 3 6 2 4 3 2 4 3 2 3 3 4 5 5 5 5 5 6 6 8 8 8 9 10 10 11 12 14 16 15 15 14 13 12 12 13 17 17 16 16 15 13 12 12 12 11 10 10
2 4 4 3 3 3 2 2 2 2 2 3 2 3 6 6 6 8 10 12 12 13 14 13 14 14 15 15 14 17 18 19 18 16 14 14 14 15 20 19 18 17 15 15 16 16 14 13 13
4 3 4 3 5 2 1 1 1 4 1 3 1 4 9 5 9 11 12 13 15 18 18 19 19 20 20 20 19 19 19 21 22 20 19 18 17 17 18 21 21 20 19 18 19 18 17 17 16
4 4 3 3 3 3 5 7 4 6 8 9 10 9 6 10 11 13 13 15 17 20 19 20 23 24 24 25 24 23 23 23 22 24 23 23 21 20 20 20 22 23 23 22 20 20 21 20 19
4 5 2 2 3 5 4 5 1 3 2 4 6 9 11 11 13 15 17 19 19 20 21 20 23 24 26 27 28 28 27 27 26 24 25 26 25 24 22 23 23 24 25 25 24 23 23 23 23
3 2 1 5 5 5 1 6 5 7 9 5 3 5 9 12 16 20 20 22 20 20 20 21 24 25 27 27 28 30 30 30 31 28 27 26 27 28 26 25 25 24 24 25 27 28 27 28 27
3 4 3 3 5 5 7 8 5 5 6 4 9 14 21 22 23 25 25 26 25 29 29 25 25 25 27 28 29 30 31 32 34 32 29 29 28 28 30 30 29 26 25 26 28 29 31 31 31
1 3 5 4 7 3 5 4 4 6 6 18 20 20 20 25 25 24 27 25 25 25 28 30 28 27 28 28 30 32 33 34 34 35 33 30 30 30 30 32 31 30 29 29 29 31 31 33 33
6 4 1 4 3 4 4 7 14 22 16 18 18 18 24 29 31 26 23 22 23 21 21 24 28 30 31 33 34 35 35 37 36 36 35 34 33 33 33 33 33 33 32 33 33 33 33 34 36
6 3 5 2 4 2 6 6 9 21 13 17 23 26 29 31 21 23 20 20 21 21 20 20 25 26 26 29 34 38 40 39 38 37 35 36 37 34 34 35 36 36 36 35 35 36 36 35 36
4 5 4 4 5 0 7 12 7 14 17 23 26 28 24 20 20 17 19 17 17 19 21 22 22 22 22 26 28 31 36 36 36 36 34 34 34 33 35 35 38 39 38 37 39 39 39 39 39
4 6 5 5 3 3 6 13 6 3 12 14 13 16 16 16 11 11 12 15 16 16 16 19 22 23 22 23 22 24 27 32 34 36 35 32 31 32 33 34 36 39 40 40 40 40 41 42 43
8 6 5 3 2 6 2 6 3 4 6 7 26 13 14 8 7 12 14 17 18 16 15 14 14 16 17 18 19 21 24 28 29 31 33 33 32 33 34 34 34 37 38 40 41 41 40 40 43
5 6 7 5 3 4 9 6 5 5 4 8 13 12 2 7 8 11 15 17 19 19 20 17 11 7 8 12 13 11 14 17 21 24 28 29 30 31 33 34 33 34 37 37 39 42 43 42 43
8 6 4 2 3 7 9 8 4 5 10 5 14 8 9 8 7 9 11 13 16 17 18 21 22 20 13 7 5 6 9 14 20 20 24 26 28 28 28 28 31 34 35 35 35 36 41 45 44
6 8 2 4 5 6 2 8 9 3 6 8 13 6 11 8 7 8 9 11 13 15 17 18 19 20 19 18 15 11 7 7 12 15 18 19 24 25 25 25 29 30 31 32 31 32 35 41 45
13 11 5 7 5 4 2 8 5 11 13 6 4 15 12 9 8 9 10 10 11 12 13 14 16 17 18 17 15 13 11 10 8 10 13 15 18 23 24 27 27 33 33 32 31 33 36 38 43
5 14 7 4 3 2 5 6 7 8 10 13 11 16 13 10 8 7 7 8 9 10 12 13 13 14 15 16 16 16 15 15 13 12 12 13 15 19 20 22 26 31 34 34 32 34 39 38 41
7 8 4 3 6 7 5 6 8 2 4 6 11 17 14 10 7 7 6 6 6 7 9 11 13 13 15 14 13 13 15 15 15 17 18 17 17 18 20 22 24 26 31 34 35 36 37 40 41
6 8 4 5 5 5 2 6 7 14 9 12 15 16 14 10 7 4 4 4 6 7 8 8 9 10 11 12 12 11 12 13 16 17 20 22 22 20 20 23 25 27 29 28 36 37 39 42 42
16 10 10 7 4 4 3 10 2 6 10 22 19 19 15 10 7 4 2 2 3 7 9 10 11 14 16 17 16 17 18 17 17 21 23 21 25 26 26 24 25 26 28 29 30 32 38 41 44

GFSSGP_850_spd_162.txt.gz
Wind_Speed
15 9 5 2 2 2 5 5 2 3 3 3 3 2 7 6 5 3 1 9 10 11 10 9 8 6 7 4 2 2 3 4 3 2 5 4 4 5 8 8 10 12 11 10 8 14 14 11 11
14 8 3 2 1 5 6 3 5 6 6 3 3 2 3 5 3 3 8 6 12 11 9 8 7 7 6 3 1 1 3 4 5 2 5 5 2 5 6 6 9 9 9 8 9 12 16 11 10
11 7 2 2 1 6 7 4 6 6 2 2 3 5 2 3 3 5 4 8 12 12 9 7 6 7 6 3 1 2 4 5 4 1 2 2 1 7 8 7 8 7 8 7 9 9 9 8 11
9 3 4 3 11 5 6 5 4 3 3 4 2 4 4 3 1 5 6 9 10 10 8 7 5 7 6 3 3 3 4 5 5 0 3 3 1 2 9 8 8 7 7 7 9 7 7 9 11
6 3 3 6 8 5 4 3 2 4 3 6 5 4 4 3 3 4 8 9 8 8 7 6 6 7 6 4 4 5 5 5 5 1 4 6 5 3 5 7 7 7 5 6 7 4 8 10 11
3 2 4 6 7 5 4 3 2 4 4 4 4 3 4 2 3 3 8 9 7 6 6 7 7 8 7 6 6 7 6 6 6 3 6 8 7 6 5 7 7 6 6 5 6 6 7 8 8
3 3 3 8 8 5 3 2 2 4 4 6 2 2 3 3 3 5 8 8 7 6 6 7 8 9 9 8 8 8 7 7 7 6 6 10 10 8 5 8 7 9 7 6 5 7 8 8 8
3 1 6 2 8 4 2 2 3 3 4 3 3 3 4 2 3 4 5 6 5 5 6 7 8 10 10 11 10 10 10 8 8 8 8 9 10 13 10 10 9 10 9 8 7 8 9 10 9
2 2 5 5 7 5 3 3 2 3 3 2 3 3 2 3 3 2 1 2 3 4 5 6 7 8 10 11 12 12 12 11 11 11 10 10 10 12 14 14 12 13 12 11 10 11 11 11 11
1 3 3 2 4 6 5 3 3 3 5 3 4 6 6 6 4 2 2 4 6 7 7 8 8 9 10 10 11 13 14 14 15 13 13 12 11 13 15 15 14 14 15 13 13 13 14 13 13
2 3 6 5 4 5 3 3 1 2 3 3 4 3 4 4 5 6 6 8 9 11 12 12 13 12 13 14 14 15 15 16 17 16 16 16 15 15 16 17 18 17 15 15 15 15 16 16 15
5 4 6 8 6 4 4 2 2 3 2 2 3 2 4 2 3 7 10 12 14 16 16 17 18 17 17 17 18 19 19 18 19 18 17 19 19 19 18 18 19 20 18 17 16 16 18 19 19
6 5 5 5 6 4 5 6 4 6 6 6 7 9 7 7 9 10 13 14 15 18 19 20 20 21 21 21 22 22 22 22 21 21 20 21 21 22 21 21 21 22 21 21 21 21 20 22 22
6 5 2 2 5 4 5 5 5 6 10 5 8 7 8 10 9 12 13 16 17 19 19 20 22 22 23 25 24 24 24 23 24 24 24 22 23 24 24 24 24 24 24 23 23 23 22 23 24
6 7 1 6 7 6 5 11 11 14 13 10 9 8 8 10 13 16 19 21 22 23 24 22 21 23 23 24 26 26 26 25 26 26 26 25 25 25 25 25 27 26 26 25 26 26 26 26 27
5 3 7 7 10 5 6 12 2 9 9 9 8 10 11 16 19 19 19 24 22 24 24 25 28 27 27 26 25 26 27 28 27 28 28 26 27 26 27 28 28 26 27 28 28 28 28 29 28
6 4 11 3 8 4 13 7 6 7 6 9 14 16 18 20 20 16 19 19 19 18 19 23 25 29 30 29 27 28 29 30 29 30 30 28 28 29 29 30 30 29 28 29 31 31 29 28 28
10 7 6 7 7 7 9 15 9 12 15 18 18 18 20 21 20 18 17 18 18 19 19 21 23 25 27 30 31 31 32 33 33 33 32 30 31 29 31 31 32 32 32 32 32 33 33 33 32
7 8 7 5 5 5 13 14 15 16 18 20 22 22 21 20 17 12 13 13 15 17 19 21 23 23 25 27 28 29 30 31 32 33 34 33 32 30 29 30 32 35 36 34 34 34 34 36 36
7 7 6 2 4 4 9 14 15 24 19 24 24 23 20 12 8 7 8 8 10 11 12 15 18 21 23 24 25 24 23 24 25 25 28 27 28 28 28 27 29 33 37 37 36 36 37 38 35
14 14 11 8 3 6 10 14 9 9 10 16 19 16 8 5 2 3 3 5 6 7 9 10 12 14 19 23 23 22 22 21 21 20 21 23 23 24 25 26 28 28 31 34 34 37 40 41 41
16 10 7 5 3 4 4 7 8 8 12 9 10 12 8 6 4 3 3 5 6 8 8 8 8 11 12 14 18 17 13 12 12 13 14 16 17 18 20 22 23 25 27 29 29 31 35 37 40
6 11 11 8 8 9 12 4 5 4 14 16 17 7 8 9 8 6 7 8 9 10 11 12 11 6 4 5 6 9 9 9 9 10 12 13 14 14 14 17 19 21 23 24 26 27 32 35 38
11 8 4 2 2 8 14 11 9 12 12 12 14 9 12 10 9 7 6 7 7 8 10 12 13 13 12 10 7 4 5 8 10 11 12 12 13 14 17 17 19 21 23 25 24 26 28 33 37
14 14 4 6 6 8 0 13 18 7 13 14 11 14 13 12 9 8 7 6 4 4 6 8 9 10 11 11 11 10 8 7 7 8 9 11 12 12 13 16 22 23 25 25 25 26 29 31 34
18 14 6 7 7 5 3 11 6 12 17 6 4 17 14 13 11 9 7 5 3 2 2 3 4 5 5 6 8 8 9 8 8 9 11 12 13 15 16 19 20 20 24 25 27 29 30 30 33
8 13 13 1 2 3 7 8 10 10 12 13 13 16 15 13 11 9 7 5 3 2 1 1 2 3 3 4 3 3 3 2 3 6 9 11 13 14 16 18 21 22 24 23 28 30 30 31 33
10 10 5 6 8 9 11 15 13 10 16 17 13 17 15 14 13 11 9 6 4 2 3 3 3 4 5 5 5 6 6 7 9 9 7 8 11 14 15 15 17 20 22 23 26 25 30 33 34
8 12 7 5 9 9 8 9 10 18 16 16 19 23 22 18 16 14 11 8 6 4 3 3 3 4 6 7 8 11 13 15 16 17 19 18 18 18 20 20 21 20 19 21 23 24 29 29 31
19 17 19 9 9 11 12 15 7 7 12 16 18 23 21 20 18 14 12 10 8 6 5 5 5 6 7 8 9 10 12 12 13 14 16 19 22 23 25 26 29 27 28 25 22 24 24 28 34

GFSSGP_850_spd_165.txt.gz
Wind_Speed
11 7 3 2 5 2 6 5 3 5 7 7 7 10 10 11 8 5 4 5 10 11 8 7 6 5 5 4 4 5 6 7 5 4 2 2 3 4 6 5 7 7 4 5 11 12 8 9 9
10 6 1 4 4 8 7 6 9 9 8 4 4 1 8 11 10 7 7 6 11 9 8 7 6 7 5 3 3 5 6 7 7 6 3 1 3 5 4 3 6 6 5 4 6 10 7 7 7
9 4 4 3 4 7 7 8 9 7 4 3 4 8 5 7 7 5 5 10 11 9 8 8 5 7 5 2 1 3 5 6 7 5 1 3 2 3 3 4 4 4 4 2 5 7 5 5 4
10 2 3 7 8 7 12 9 8 8 6 5 1 8 7 5 2 2 6 10 10 8 7 6 5 6 5 2 1 3 5 4 5 2 1 3 5 3 7 3 4 3 4 5 3 2 4 6 6
5 4 2 5 6 7 8 7 3 6 6 8 2 8 7 5 5 5 9 9 8 6 6 6 5 6 4 3 3 3 4 4 3 1 3 3 7 4 5 4 4 3 3 3 5 3 3 7 6
3 4 4 7 8 7 7 4 2 6 6 6 8 11 7 4 5 5 7 7 6 6 6 6 5 6 5 5 4 5 6 5 3 2 3 5 7 6 5 6 5 4 4 6 6 4 5 6 6
5 5 2 6 9 7 6 2 2 5 5 8 2 7 6 6 4 6 7 6 6 5 5 5 5 6 7 7 7 6 7 7 6 4 5 7 9 9 9 6 6 8 5 6 5 4 6 6 7
4 4 5 3 9 5 5 4 3 1 5 3 2 3 8 4 4 5 5 5 4 4 4 6 7 8 8 9 8 9 8 9 8 7 6 8 10 12 12 10 9 8 8 8 7 7 8 9 9
2 4 6 5 5 7 7 6 2 2 5 4 4 6 6 6 6 5 4 3 3 4 3 5 8 9 9 9 11 10 10 10 10 10 10 9 10 11 12 13 14 11 9 11 10 10 10 10 11
3 5 4 3 3 7 7 4 5 5 7 7 8 7 7 6 5 4 3 2 5 6 5 5 6 8 9 10 10 11 11 11 12 12 12 11 10 9 12 13 14 15 13 13 14 13 13 13 12
2 6 4 4 3 5 6 7 4 5 6 5 8 7 5 4 3 3 3 4 5 6 9 9 9 10 11 12 12 12 12 12 12 13 13 14 13 14 14 15 15 16 17 17 14 15 16 16 14
6 2 6 5 4 4 6 3 6 6 1 5 5 4 2 3 3 4 5 6 7 8 9 11 12 13 13 14 14 15 16 15 15 14 14 16 17 17 17 15 14 16 12 16 14 16 15 16 17
10 8 5 5 5 5 2 8 9 10 9 6 6 6 6 7 7 7 8 9 9 10 10 11 12 13 17 16 15 16 17 19 18 16 17 17 18 19 19 18 18 17 17 16 17 18 17 18 20
5 8 10 8 10 6 7 13 5 12 14 13 11 10 9 10 11 11 11 12 13 14 13 12 12 14 15 18 20 17 17 17 20 21 19 20 19 20 20 20 21 21 21 20 20 19 19 20 20
5 9 9 12 12 10 8 16 17 18 9 12 13 13 14 14 12 13 13 15 16 17 17 18 19 20 19 19 20 19 20 21 20 21 22 22 22 21 22 22 22 22 22 22 22 23 22 22 23
8 9 13 10 15 7 8 18 10 17 18 19 19 15 15 16 16 16 16 16 15 16 19 22 23 23 24 25 23 20 19 19 23 22 24 24 23 23 23 24 25 23 23 23 24 24 25 26 25
9 8 15 10 10 12 12 12 15 8 11 15 15 17 19 19 18 16 15 14 14 15 17 18 19 21 22 23 23 25 24 23 22 24 22 25 24 24 25 26 27 24 25 25 25 26 25 26 27
12 15 11 16 7 14 14 19 8 8 11 14 17 19 21 21 19 14 13 11 14 15 17 19 20 21 21 22 22 24 25 27 26 30 31 29 28 29 26 27 27 26 27 29 27 28 26 27 27
6 13 13 11 6 8 15 18 16 18 21 24 23 24 24 22 17 11 6 10 12 12 14 15 17 18 20 19 18 19 20 20 22 26 28 26 27 28 28 27 26 25 28 30 30 29 29 30 30
11 11 12 3 6 9 13 18 18 22 25 26 28 28 25 20 15 8 5 7 8 8 8 9 11 13 14 17 17 15 14 13 15 15 16 23 22 21 25 23 23 25 25 29 31 29 31 34 32
17 15 12 8 7 12 14 21 24 22 30 28 29 26 20 14 11 8 4 4 5 5 6 7 9 11 12 13 15 16 15 16 14 13 13 14 19 18 18 19 19 20 22 26 28 28 29 33 34
17 16 14 13 7 7 5 7 6 8 10 12 15 17 16 13 10 8 4 2 2 2 3 5 6 8 9 9 6 7 8 9 9 10 10 12 14 15 15 14 14 15 17 19 23 23 23 24 31
12 4 11 11 12 11 14 7 5 10 15 18 21 16 13 12 11 9 7 6 4 3 2 3 4 4 5 6 5 3 7 8 9 11 12 11 11 12 13 13 16 17 16 18 19 21 23 25 28
8 7 5 5 7 9 15 12 9 12 13 3 10 17 12 14 13 10 9 7 6 5 4 4 5 6 7 8 8 6 4 4 5 8 9 10 11 11 11 15 14 15 19 21 22 21 22 24 27
11 9 4 5 6 8 0 12 15 6 4 9 6 11 15 15 13 10 9 8 7 5 4 3 2 3 3 4 4 5 5 5 6 7 7 7 7 10 13 13 15 17 19 22 21 22 23 25 28
20 15 6 6 6 5 7 10 4 5 17 13 12 14 15 15 13 11 11 10 8 6 4 3 2 2 2 2 2 2 2 3 4 4 4 5 6 8 10 12 14 15 17 19 22 23 24 26 28
11 17 15 5 3 4 8 10 13 10 11 15 10 14 17 16 14 13 12 11 10 8 7 6 5 5 5 6 7 8 8 7 8 8 9 10 11 12 11 11 12 14 16 18 19 22 22 24 23
10 8 8 4 6 9 12 16 13 7 14 15 15 16 18 17 15 14 13 13 12 10 9 9 9 9 10 11 11 11 11 11 12 12 13 14 15 15 15 16 16 16 16 17 18 19 20 22 25
11 9 9 7 8 9 12 12 10 15 15 17 21 21 19 19 17 16 15 15 13 11 9 9 8 8 8 8 8 8 9 10 12 14 15 16 17 18 20 20 21 21 21 21 21 21 23 23 24
17 16 18 8 13 11 16 20 4 2 9 14 19 22 24 20 18 16 18 17 15 14 12 11 10 10 10 11 11 12 13 15 16 17 17 18 17 17 17 17 17 17 18 18 19 22 23 26 29

GFSSGP_850_spd_168.txt.gz
Wind_Speed
11 5 2 4 2 4 6 2 7 5 8 13 9 14 13 20 7 5 11 10 5 9 9 7 7 7 6 7 8 9 10 9 7 6 4 7 5 2 3 3 6 7 7 9 7 10 6 7 9
10 5 2 6 3 6 4 8 9 9 10 4 8 4 18 12 13 12 9 14 8 6 8 8 6 8 6 6 7 8 9 10 8 6 2 6 5 5 6 7 6 6 5 5 8 8 5 5 6
13 6 4 3 4 3 6 11 8 10 3 3 6 12 9 8 10 6 5 15 10 7 7 5 5 6 4 4 5 6 7 9 8 5 3 5 6 3 1 4 5 4 5 4 5 5 4 2 3
12 3 5 2 10 9 11 9 13 11 11 5 8 10 9 6 3 6 11 13 11 9 5 5 5 6 4 2 2 3 5 5 6 3 3 3 4 2 5 3 3 5 4 3 3 1 2 3 4
5 7 2 5 9 9 9 8 5 8 8 5 13 9 9 9 9 11 13 12 9 7 5 4 4 5 4 1 2 3 4 4 4 3 1 1 6 3 5 4 1 2 2 3 3 2 2 5 2
6 3 3 4 8 8 7 4 2 11 14 5 21 13 7 9 6 10 11 11 8 6 4 3 3 4 3 1 2 3 4 3 2 2 1 4 3 7 9 6 3 2 3 1 3 2 3 5 5
6 4 5 9 8 6 7 3 2 9 15 6 2 8 10 7 7 11 11 8 8 4 4 3 2 4 4 4 3 4 4 4 3 4 3 4 6 7 9 8 5 4 5 3 2 3 3 5 6
6 3 3 3 8 5 4 4 3 11 7 6 5 5 8 8 9 11 11 7 5 4 2 3 3 4 4 5 5 6 6 6 5 4 5 5 6 7 10 10 9 8 6 7 5 5 6 7 7
4 2 3 1 3 8 9 6 2 5 11 10 7 12 12 11 11 10 9 8 6 4 6 4 3 6 6 6 6 7 7 8 8 7 7 7 7 8 7 10 11 10 10 9 9 9 9 9 10
2 2 4 9 10 8 8 4 8 5 11 12 11 11 11 10 10 7 6 1 1 3 4 4 6 7 7 7 9 9 7 8 9 10 10 9 8 8 9 11 9 12 13 13 12 13 12 12 12
2 2 5 5 8 8 8 5 4 6 5 17 17 10 8 8 8 7 5 5 4 1 7 10 7 8 10 11 10 11 11 11 10 11 10 10 10 10 10 14 15 14 13 15 14 14 14 14 14
3 2 3 7 5 3 5 6 5 5 6 11 14 12 8 7 6 5 5 5 4 5 6 9 14 12 11 13 13 13 13 13 13 12 13 13 13 14 15 14 15 16 14 14 13 14 16 13 14
5 4 1 5 4 4 1 2 6 6 4 7 7 10 8 7 7 5 5 6 5 5 5 7 11 13 16 17 14 15 16 16 15 14 14 17 16 16 16 16 16 16 18 17 16 16 17 17 17
8 12 7 3 5 3 2 6 6 8 11 9 11 10 10 10 9 8 11 8 7 9 11 10 11 12 15 18 19 16 16 16 16 17 17 18 19 17 19 18 18 18 18 19 19 19 20 21 21
3 5 1 4 8 4 4 6 10 17 12 13 15 14 12 12 10 11 12 11 12 14 15 16 17 16 18 18 22 22 20 17 20 20 18 21 21 22 20 21 21 21 20 20 21 22 23 23 23
2 5 6 8 14 6 7 5 12 26 20 18 16 17 16 16 12 13 14 14 16 16 18 15 15 16 18 18 19 21 22 23 23 21 20 21 22 23 23 22 24 23 23 23 23 23 24 25 26
4 3 9 8 21 7 8 5 15 14 8 15 16 17 21 15 14 14 15 20 18 19 19 17 17 18 18 19 19 20 21 23 24 24 24 22 20 21 24 25 24 23 24 24 24 26 26 26 27
7 9 7 9 6 3 8 9 13 6 7 12 17 19 17 17 15 13 20 18 15 19 17 16 16 17 19 19 18 18 19 21 21 22 24 26 23 18 22 25 26 24 24 26 26 27 26 26 26
2 4 10 8 5 4 9 12 10 18 18 16 18 18 21 21 18 22 21 17 17 16 13 12 12 12 13 16 16 15 15 15 16 16 20 23 20 19 25 26 26 25 26 27 28 29 29 29 27
8 6 8 2 4 1 8 13 11 14 17 21 23 26 25 22 21 20 14 11 13 11 9 8 8 8 9 10 12 15 14 12 9 10 12 15 18 18 16 20 21 22 24 27 27 28 28 29 29
10 8 7 6 3 4 8 12 16 14 28 26 29 30 28 24 19 12 10 9 10 8 6 5 6 7 8 9 9 7 9 9 8 9 9 8 12 14 15 14 16 17 18 20 22 25 26 26 26
12 8 8 7 4 3 9 6 9 6 14 17 27 30 29 25 16 11 9 10 10 7 5 3 3 4 5 5 5 4 7 8 6 8 9 8 11 13 11 13 13 13 14 15 17 19 21 22 24
5 5 9 9 5 6 10 8 4 7 6 9 18 20 19 20 21 16 14 13 9 7 5 4 1 0 1 2 2 2 5 8 11 13 12 11 11 13 13 13 12 10 17 16 16 17 18 20 21
5 4 3 3 3 8 9 8 5 8 9 6 6 21 18 25 21 18 16 13 12 10 8 6 4 3 3 3 4 4 3 2 1 1 3 4 9 12 13 14 16 17 18 16 19 19 19 20 21
10 9 3 3 4 6 5 11 13 14 5 4 9 13 24 24 23 19 17 15 13 11 10 9 6 4 3 2 2 1 0 1 2 3 3 3 4 6 7 10 13 14 15 17 20 21 20 20 20
13 10 4 6 4 3 8 7 5 2 9 9 4 19 21 22 18 17 17 16 14 12 10 8 6 4 3 3 3 3 4 5 7 8 8 9 10 10 10 11 11 11 12 13 15 17 19 20 21
6 11 7 4 3 2 5 5 8 5 6 4 7 19 22 21 22 21 19 17 15 13 11 9 9 7 6 6 6 7 8 9 9 9 10 11 12 12 13 13 14 14 14 13 13 12 13 14 17
7 5 6 6 4 5 6 7 8 4 9 9 10 15 22 21 21 20 19 18 16 13 12 12 10 9 9 9 11 12 11 11 12 13 14 14 15 17 18 19 19 19 19 18 16 16 16 16 16
10 5 5 5 5 4 2 5 7 3 3 13 15 24 22 22 21 21 20 20 18 16 16 14 12 11 11 11 11 12 12 13 14 16 17 18 18 19 19 18 18 16 15 13 13 13 14 14 15
16 13 11 5 6 4 7 14 5 1 3 4 16 24 26 26 26 23 23 22 20 20 18 17 16 15 13 12 12 13 14 15 16 17 18 19 18 18 17 15 14 11 9 8 8 10 13 15 17

GFSSGP_850_spd_171.txt.gz
Wind_Speed
9 5 1 2 4 5 2 5 4 3 4 8 18 22 12 10 4 7 11 5 6 9 10 9 11 11 9 9 11 11 10 8 7 6 9 7 5 5 5 4 4 8 9 10 13 8 9 11 10
8 3 2 1 5 4 1 4 9 4 9 13 22 19 13 4 15 14 12 9 3 9 9 8 8 9 8 8 9 10 10 9 7 5 7 7 5 5 7 5 7 9 7 12 10 9 7 8 8
8 6 3 3 3 5 4 3 7 6 5 5 6 13 7 4 10 9 15 11 5 10 7 6 7 8 6 6 7 8 8 8 8 6 6 7 6 7 7 5 5 8 6 9 9 5 6 6 6
14 2 0 5 6 6 8 7 12 8 9 9 15 10 9 4 6 9 19 11 10 9 6 3 6 7 5 4 5 6 6 6 6 5 5 5 6 3 4 4 4 5 6 3 5 1 6 8 8
11 3 4 5 6 3 5 12 12 5 5 18 11 5 8 9 9 15 19 14 10 8 6 4 5 6 4 4 4 4 4 4 5 3 2 2 4 5 7 5 2 4 5 5 3 2 4 5 7
6 3 4 4 5 3 4 5 14 15 19 15 17 9 6 9 11 16 17 11 8 7 5 5 5 5 4 3 2 2 3 3 3 3 1 2 3 4 6 7 4 2 3 1 1 2 4 6 4
3 3 3 6 8 4 3 4 6 9 8 8 12 5 11 9 12 15 15 13 9 6 7 6 6 6 4 3 2 1 1 1 0 1 1 2 4 5 6 5 4 1 1 1 1 2 1 3 4
4 3 2 2 7 4 5 4 9 10 4 10 9 6 6 12 15 17 12 9 10 6 1 3 3 4 5 6 5 4 3 3 3 2 2 3 4 5 6 7 6 5 4 3 3 3 4 5 6
3 4 2 2 6 6 11 4 7 9 13 10 7 16 15 16 17 17 14 10 7 4 3 2 0 1 2 2 2 3 2 5 5 5 5 5 5 5 6 5 7 8 8 8 7 7 7 8 8
4 3 1 3 4 6 10 10 10 7 13 11 17 16 16 16 14 13 11 8 4 2 2 3 4 4 5 6 6 7 6 5 6 7 7 7 7 7 7 7 7 8 9 11 11 11 10 10 10
4 1 0 4 11 16 10 10 6 14 3 17 21 19 17 15 11 8 5 2 1 0 3 4 6 8 9 9 10 10 9 9 8 7 7 6 7 8 9 9 10 11 11 11 11 12 13 12 13
3 6 6 2 6 7 8 10 3 3 4 18 18 17 15 13 11 10 9 9 7 6 7 8 8 9 10 11 13 12 11 12 12 11 11 11 9 10 11 12 13 14 14 14 13 13 13 12 11
2 3 5 5 4 6 4 6 4 10 15 22 19 16 13 11 10 10 10 11 10 7 5 5 7 10 12 13 12 14 16 15 14 14 14 15 15 13 14 15 15 15 15 15 15 16 16 16 15
1 4 3 2 4 4 3 2 1 12 11 16 18 16 16 14 14 14 11 10 6 9 11 12 11 9 11 15 18 15 14 15 17 16 15 16 17 18 16 16 17 17 17 17 17 17 18 19 19
3 3 2 2 3 2 2 5 8 15 10 15 16 14 15 14 17 18 15 12 11 15 16 17 16 17 18 19 20 20 18 16 16 16 17 18 19 20 21 21 18 19 18 18 19 20 21 22 22
3 4 1 4 7 4 6 6 10 20 17 17 16 18 17 16 16 16 15 13 16 17 19 20 18 16 16 17 18 20 20 19 18 17 17 17 22 20 23 23 23 22 22 22 21 21 22 23 24
3 2 5 5 11 5 6 4 9 10 16 26 23 21 18 15 16 11 14 18 17 19 20 23 21 19 19 19 19 18 18 18 19 19 20 18 17 19 20 22 24 24 23 23 24 25 24 25 24
7 4 3 5 4 7 5 6 8 18 11 9 12 15 15 15 15 12 18 21 22 22 20 22 21 19 18 19 19 18 17 17 17 18 18 18 15 15 19 21 22 24 24 25 25 26 26 27 27
6 4 4 5 5 3 5 6 10 21 18 19 20 19 19 18 13 13 18 20 21 20 20 23 16 14 13 13 15 16 14 10 6 7 9 10 12 14 17 18 24 24 24 24 25 27 27 30 27
5 3 4 5 2 2 4 9 11 12 17 27 30 25 26 23 18 20 23 22 20 16 17 13 11 10 9 9 9 11 11 8 3 4 6 9 11 11 12 13 13 17 20 22 25 27 28 27 25
6 6 4 5 2 2 4 8 9 10 27 29 30 32 29 27 23 21 25 21 15 12 13 12 10 9 9 8 8 7 10 11 14 14 11 7 7 7 11 12 10 10 12 15 17 19 22 25 25
10 6 4 3 4 3 3 6 6 7 9 13 30 37 35 29 27 24 25 18 11 11 12 11 9 7 6 6 7 5 6 10 9 8 7 8 10 12 13 13 13 13 12 11 12 12 15 16 19
3 5 7 4 2 2 2 4 6 3 5 8 20 31 32 29 27 28 23 15 13 14 13 11 8 6 5 5 4 5 5 7 10 11 12 12 15 13 14 15 13 12 11 14 15 16 14 18 19
7 5 3 3 2 7 8 8 4 6 9 5 8 22 21 18 26 26 19 15 16 16 15 12 9 7 6 5 4 4 4 4 5 6 6 9 9 12 14 14 14 16 16 16 17 18 18 19 18
7 8 1 1 4 6 4 9 13 6 7 4 11 14 19 26 30 26 21 20 19 17 15 12 10 9 7 6 5 5 4 3 2 2 3 4 5 6 7 9 10 12 14 15 15 16 17 19 18
13 11 5 7 5 3 4 8 6 8 17 16 9 13 24 32 30 25 22 21 20 18 16 14 13 11 10 9 7 6 5 5 6 7 8 8 9 9 9 9 10 10 11 11 12 12 13 13 15
6 9 5 2 3 2 4 6 8 8 5 6 13 23 29 29 27 24 23 21 20 19 18 17 17 16 13 11 9 8 8 8 8 9 9 10 12 13 15 17 17 17 17 16 16 14 13 12 12
6 7 4 3 3 4 5 5 7 2 8 6 9 26 31 30 27 24 21 21 21 20 20 20 19 16 14 13 12 10 9 9 9 9 9 11 13 15 17 17 17 16 16 14 13 12 12 11 10
6 4 5 4 5 5 2 6 8 17 6 8 14 25 29 30 29 26 24 23 22 22 22 22 20 17 16 14 13 12 11 11 12 13 14 15 17 18 18 18 16 15 14 12 10 7 4 3 4
18 12 11 6 5 5 1 7 3 9 5 5 8 18 28 32 30 27 26 25 26 25 25 23 21 20 18 17 16 14 14 14 14 15 15 16 17 17 16 14 13 12 9 5 2 3 4 6 7

GFSSGP_850_spd_174.txt.gz
Wind_Speed
10 4 2 4 4 5 2 2 3 2 4 9 17 18 10 7 3 4 13 9 7 10 11 12 11 11 10 9 9 8 8 7 7 10 8 7 6 6 4 2 7 11 10 12 10 11 11 10 10
8 1 2 4 5 4 2 2 5 3 15 21 16 12 10 3 8 14 13 8 7 11 10 10 10 9 9 8 8 8 8 8 6 7 7 6 6 7 5 5 8 6 8 10 9 12 12 10 8
5 4 2 4 4 5 5 4 6 8 22 6 7 11 5 5 12 13 9 10 6 11 9 9 10 8 7 7 7 7 8 8 6 6 7 6 5 6 6 6 8 7 8 9 7 9 10 10 7
6 3 4 4 4 1 7 7 7 8 7 7 17 8 6 4 10 10 15 10 11 9 7 6 8 7 6 5 5 6 6 6 5 5 5 5 5 5 5 4 7 8 5 7 4 6 9 9 7
5 3 4 4 4 3 2 11 14 4 5 11 4 4 5 7 11 18 16 12 11 8 6 5 7 7 5 5 4 4 4 4 4 4 2 2 2 4 4 4 2 3 3 5 2 2 7 9 7
4 3 4 4 3 3 4 10 11 12 16 13 15 8 4 9 19 21 16 12 9 9 8 7 7 7 5 4 3 2 2 2 2 3 3 1 1 2 3 3 2 3 4 3 1 1 4 6 7
4 4 4 5 5 2 4 10 7 13 10 5 14 5 11 12 17 20 16 12 10 9 9 10 9 8 7 5 3 2 2 1 1 1 1 2 2 3 3 3 1 1 0 0 1 0 2 4 4
3 3 5 3 6 4 6 5 11 14 6 13 9 7 7 18 19 19 16 13 12 9 3 4 6 8 7 7 6 5 4 3 3 3 3 3 3 3 4 4 3 2 2 2 3 4 3 4 6
5 4 1 3 6 5 11 6 4 7 12 7 4 14 15 21 22 19 16 13 12 8 5 3 2 2 2 3 5 5 5 5 6 6 6 6 5 5 5 4 3 3 5 6 5 5 7 7 8
5 3 2 2 6 6 10 13 13 7 12 8 16 17 20 22 23 20 17 14 11 7 4 3 2 3 4 4 5 7 7 6 6 7 8 8 8 8 8 7 7 5 6 7 8 9 9 9 10
2 2 4 5 3 15 13 11 6 19 2 17 25 24 22 22 20 17 14 10 5 5 5 3 4 4 6 8 8 10 10 9 9 8 8 8 8 8 9 9 9 8 9 10 10 11 11 10 10
2 5 4 4 7 6 8 9 7 10 6 16 23 24 24 22 20 17 13 11 10 8 6 6 6 6 7 8 10 12 12 12 11 10 11 11 10 10 10 11 11 11 11 12 12 12 12 12 11
2 2 4 4 6 8 3 5 2 9 10 17 24 24 23 20 16 14 12 10 11 10 9 9 9 9 9 11 11 11 13 14 13 14 12 13 13 14 11 12 13 13 14 14 14 14 14 14 14
1 2 4 3 2 4 4 3 2 8 12 22 24 23 21 20 19 18 18 16 14 12 13 12 11 10 12 15 16 15 13 13 14 16 15 14 14 14 17 16 15 15 15 15 15 15 16 16 17
1 1 3 3 4 1 3 5 6 9 14 21 23 22 21 20 20 21 19 18 14 13 15 15 15 17 19 20 19 18 18 17 16 15 15 16 16 18 17 18 19 19 16 17 17 17 18 19 19
3 5 2 3 7 4 6 7 11 13 10 16 21 22 23 22 21 21 20 19 17 16 17 19 19 19 20 20 21 21 20 19 18 16 13 13 14 18 18 18 21 20 19 20 20 19 20 20 20
5 3 3 6 9 3 4 6 12 8 11 17 19 21 22 21 22 20 20 19 18 17 18 18 20 23 23 22 21 21 20 19 18 17 15 14 13 16 19 19 18 19 20 22 21 21 21 22 22
7 6 4 6 1 4 6 8 7 11 5 8 10 21 25 23 23 22 22 21 20 18 19 21 23 23 26 22 20 20 20 20 19 18 16 14 14 15 16 17 18 20 20 20 21 21 23 23 24
5 4 5 3 5 3 8 7 11 20 13 16 20 20 17 20 18 19 21 21 20 19 20 21 22 25 23 19 17 16 16 15 14 16 14 9 8 13 13 18 14 17 20 21 21 23 24 26 23
4 4 3 4 3 5 3 7 8 11 9 19 25 27 27 25 22 20 19 19 20 20 20 21 20 21 17 15 13 12 11 13 13 14 13 13 13 12 15 14 12 11 12 14 17 18 20 23 23
4 5 4 4 4 4 6 6 7 9 16 30 36 36 35 36 30 25 24 24 23 21 19 17 17 17 15 13 11 11 12 16 15 13 11 11 12 13 14 12 13 12 11 11 12 12 13 16 16
6 6 5 3 2 4 1 6 6 6 8 7 27 35 44 37 34 29 30 28 23 19 18 17 15 15 11 9 8 8 9 14 15 13 12 12 10 12 12 13 13 13 14 14 13 14 15 14 15
5 6 7 4 3 0 3 4 6 4 6 11 17 28 31 38 38 35 34 27 23 19 18 17 16 12 9 8 7 7 8 11 12 11 11 12 15 16 16 16 15 14 14 14 15 16 15 13 13
7 6 5 4 2 6 8 8 5 6 11 5 13 25 25 25 28 31 31 26 25 23 20 19 15 11 9 8 8 7 6 7 8 9 11 12 13 15 15 15 14 14 15 16 17 16 16 17 14
5 8 1 1 4 7 2 8 12 7 9 8 9 13 17 17 24 29 33 31 26 22 21 18 15 12 11 11 9 8 7 6 6 7 7 7 9 10 10 11 11 12 13 13 13 14 14 15 16
11 10 5 8 5 4 2 7 6 10 18 24 31 23 14 19 23 28 31 28 24 22 20 18 17 14 14 13 12 11 10 9 9 9 9 10 11 11 12 12 12 13 13 14 14 14 14 13 12
5 9 5 4 2 2 4 6 8 9 9 7 6 13 14 20 26 29 29 25 22 21 21 19 18 18 18 16 15 14 14 12 11 12 12 13 14 14 14 14 14 14 15 15 16 15 15 14 12
7 8 3 2 2 4 5 5 7 2 10 5 5 17 20 23 28 29 27 24 22 23 22 21 21 21 19 19 18 18 16 15 13 13 12 13 14 15 16 17 17 16 16 15 14 12 11 9 8
5 7 5 5 5 5 2 6 7 13 6 8 8 15 20 25 28 29 26 25 23 23 23 24 24 22 22 22 21 20 17 16 15 15 15 15 16 16 17 17 16 16 14 13 11 9 7 6 5
16 10 15 6 5 4 2 14 3 6 9 3 5 10 20 27 28 27 26 25 25 25 25 26 25 25 24 26 25 22 20 18 17 16 16 16 16 17 17 17 16 15 13 10 8 6 6 5 4